This is the latest recevied weather packets stored in our database for station/object N0KTA-2. If no packets are shown the sender has not sent any weather packets the latest 10 day(s).
| Time | Temp. | Humidity | Pressure | Rain* | Wind** | Luminosity | Snow |
|---|---|---|---|---|---|---|---|
| 1777336765 | 22.22° C | 52% | 1006 hPa | 0 mm | - | - | - |
| 1777336166 | 22.78° C | 50% | 1005.7 hPa | 0 mm | - | - | - |
| 1777335565 | 22.78° C | 52% | 1005.4 hPa | 0 mm | - | - | - |
| 1777334966 | 22.78° C | 52% | 1005.4 hPa | 0 mm | - | - | - |
| 1777334365 | 22.22° C | 52% | 1005.2 hPa | 0 mm | - | - | - |
| 1777333766 | 22.78° C | 53% | 1004.9 hPa | 0 mm | - | - | - |
| 1777333166 | 22.78° C | 52% | 1004.8 hPa | 0 mm | - | - | - |
| 1777332565 | 22.78° C | 52% | 1004.7 hPa | 0 mm | - | - | - |
| 1777331965 | 22.78° C | 54% | 1004.5 hPa | 0 mm | - | - | - |
| 1777331366 | 22.22° C | 55% | 1004.5 hPa | 0 mm | - | - | - |
| 1777330766 | 22.78° C | 55% | 1004.2 hPa | 0 mm | - | - | - |
| 1777330165 | 22.78° C | 57% | 1004.2 hPa | 0 mm | - | - | - |
| 1777329566 | 22.22° C | 58% | 1004.1 hPa | 0 mm | - | - | - |
| 1777328966 | 22.22° C | 57% | 1004 hPa | 0 mm | - | - | - |
| 1777328365 | 22.78° C | 57% | 1003.8 hPa | 0 mm | - | - | - |
| 1777327765 | 22.22° C | 60% | 1003.8 hPa | 0 mm | - | - | - |
| 1777327164 | 22.22° C | 59% | 1003.8 hPa | 0 mm | - | - | - |
| 1777326565 | 22.22° C | 58% | 1003.4 hPa | 0 mm | - | - | - |
| 1777325966 | 22.78° C | 58% | 1003.2 hPa | 0 mm | - | - | - |
| 1777325365 | 22.22° C | 59% | 1003.2 hPa | 0 mm | - | - | - |
| 1777324765 | 21.67° C | 61% | 1003.3 hPa | 0 mm | - | - | - |
| 1777324165 | 22.22° C | 60% | 1003 hPa | 0 mm | - | - | - |
| 1777323566 | 22.22° C | 59% | 1003 hPa | 0 mm | - | - | - |
| 1777322964 | 22.22° C | 62% | 1002.8 hPa | 0 mm | - | - | - |
| 1777322365 | 21.67° C | 63% | 1002.9 hPa | 0 mm | - | - | - |
* Rain latest hour (hover to see other rain measurements)
** Current wind speed in m/s (hover to see current wind gust speed)